Flag for Poland Weather past 2 weeks in Zabrze, Poland

Now
57 °F

Partly sunny.


Feels Like: 55 °F
Forecast: 51 / 65 °F
Wind: 10 mph from Northeast

Location: Katowice Airport

Current Time: May 23, 2015 at 1:25:06 PM

Latest Report: May 23, 2015 at 1:00 PM


Visibility: N/A

Pressure: 30.04 "Hg

Humidity: 67%

Dew point: 46 °F

Location of ZabrzeLocation

Historic Weather in Zabrze — Graph

°F

Zabrze temperature yesterday

Maximum temperature yesterday: 59 °F (at 11:30 AM)
Minimum temperature yesterday: 50 °F (at 12:00 AM)
Average temperature yesterday: 54 °F

Past Weeks' High & Low Weather Summary

 TemperatureHumidityPressure
High75 °F (May 19, 1:00 PM)100% (May 20, 4:30 AM)30.39 "Hg (May 20, 4:30 AM)
Low34 °F (May 15, 3:30 AM)25% (May 12, 2:30 PM)29.74 "Hg (May 14, 6:00 AM)
Average55 °F68%30.04 "Hg
* Reported May 8 12:00 Noon — May 23 12:00 Noon, Zabrze, Weather by CustomWeather, © 2015

Note: Actual official high and low records may vary slightly from our data, if they occured in-between our weather recording intervals... More about our weather records

Advertising

Zabrze weather history for previous 24 hours

 ConditionsComfort  
Time TempWeatherWind HumidityBarometerVisibility
12:00 PM
Sat, May 23
55 °FPartly sunny.9 mph72%30.04 "HgN/A
11:30 AM55 °FPartly sunny.12 mph77%30.04 "HgN/A
11:00 AM55 °FPartly sunny.9 mph77%30.04 "HgN/A
10:30 AM55 °FPartly sunny.13 mph77%30.07 "HgN/A
10:00 AM54 °FScattered clouds.10 mph82%30.07 "HgN/A
9:30 AM54 °FScattered clouds.9 mph82%30.07 "HgN/A
9:00 AM52 °FScattered clouds.9 mph88%30.07 "HgN/A
8:30 AM52 °FSunny.9 mph88%30.07 "Hg10 mi
8:00 AM52 °FSunny.7 mph88%30.07 "Hg10 mi
7:30 AM52 °FSunny.6 mph88%30.07 "Hg10 mi
7:00 AM50 °FSunny.7 mph88%30.07 "Hg10 mi
6:30 AM50 °FPassing clouds.6 mph88%30.07 "HgN/A
6:00 AM50 °FLight rain. Clear.7 mph88%30.07 "HgN/A
5:30 AM50 °FClear.6 mph88%30.09 "Hg10 mi
5:00 AM50 °FLight rain. Clear.7 mph94%30.09 "HgN/A
4:30 AM50 °FLight rain. Clear.6 mph88%30.09 "HgN/A
4:00 AM50 °FClear.5 mph88%30.09 "Hg10 mi
3:30 AM50 °FClear.5 mph88%30.09 "Hg10 mi
3:00 AM52 °FClear.6 mph82%30.12 "Hg10 mi
2:30 AM52 °FClear.6 mph82%30.12 "Hg10 mi
2:00 AM50 °FClear.6 mph88%30.12 "Hg10 mi
1:30 AM50 °FClear.5 mph88%30.12 "Hg10 mi
1:00 AM50 °FClear.5 mph94%30.12 "Hg10 mi
12:30 AM50 °FClear.5 mph94%30.15 "Hg10 mi
12:00 AM50 °FClear.2 mph94%30.15 "Hg10 mi
11:30 PM
Fri, May 22
50 °FClear.5 mph94%30.15 "Hg10 mi
11:00 PM52 °FClear.5 mph88%30.15 "Hg10 mi
10:30 PM52 °FClear.5 mph88%30.15 "Hg10 mi
10:00 PM52 °FClear.6 mph88%30.18 "Hg10 mi
9:30 PM52 °FSunny.5 mph88%30.18 "Hg10 mi
9:00 PM54 °FSunny.6 mph82%30.18 "Hg10 mi
8:30 PM54 °FSunny.6 mph82%30.18 "Hg10 mi
8:00 PM55 °FSunny.6 mph77%30.18 "Hg10 mi
7:30 PM55 °FSunny.7 mph77%30.18 "Hg10 mi
7:00 PM57 °FSunny.9 mph67%30.18 "Hg10 mi
6:30 PM57 °FPassing clouds.12 mph63%30.18 "HgN/A
6:00 PM59 °FPassing clouds.13 mph63%30.18 "HgN/A
5:30 PM59 °FScattered clouds.13 mph63%30.18 "HgN/A
5:00 PM59 °FSunny.12 mph63%30.18 "Hg10 mi
4:30 PM59 °FSunny.9 mph59%30.21 "Hg10 mi
4:00 PM59 °FPassing clouds.13 mph55%30.21 "HgN/A
3:30 PM59 °FPassing clouds.12 mph63%30.21 "HgN/A
3:00 PM59 °FPassing clouds.10 mph63%30.21 "HgN/A
2:30 PM57 °FScattered clouds.10 mph63%30.21 "HgN/A
2:00 PM59 °FScattered clouds.9 mph63%30.21 "HgN/A
1:30 PM57 °FPassing clouds.9 mph67%30.24 "HgN/A
1:00 PM59 °FPartly sunny.13 mph63%30.24 "HgN/A
Weather by CustomWeather, © 2015

See weather overviewHow to use our weather pages